AZU4987 SBBE-SBRF

Flight info

Callsign AZU4987
Flight time N/A
Altitude 35000
Route ITAKI DCT PAPEL DCT GILMU DCT KIMOK
Aircraft A320/M-SDE3FGHIRWY/LB1

Departure

Time 2026-05-09 21:42
Airport Val de Cans/Júlio Cezar Ribeiro International Airport (SBBE)

Arrival

Time N/A
Airport Recife/Guararapes - Gilberto Freyre International Airport (SBRF)
Time Latitude Longitude Altitude Speed Heading
2026-05-09 21:02 -1.39036 -48.47908 57 ft 0 kts 282°
2026-05-09 21:28 -1.39036 -48.47907 56 ft 2 kts 282°
2026-05-09 21:28 -1.39041 -48.47887 54 ft 3 kts 288°
2026-05-09 21:29 -1.39048 -48.47868 50 ft 3 kts 300°
2026-05-09 21:29 -1.39059 -48.47852 55 ft 3 kts 317°
2026-05-09 21:29 -1.39064 -48.47848 55 ft 0 kts 321°
2026-05-09 21:33 -1.39053 -48.47844 54 ft 4 kts 21°
2026-05-09 21:33 -1.39024 -48.47828 57 ft 6 kts 28°
2026-05-09 21:33 -1.38973 -48.47819 57 ft 10 kts
2026-05-09 21:33 -1.38898 -48.47812 53 ft 11 kts
2026-05-09 21:34 -1.38817 -48.47804 56 ft 12 kts
2026-05-09 21:34 -1.38732 -48.47798 55 ft 13 kts
2026-05-09 21:34 -1.38667 -48.47822 54 ft 9 kts 291°
2026-05-09 21:34 -1.38669 -48.47869 54 ft 5 kts 265°
2026-05-09 21:35 -1.38670 -48.47912 53 ft 8 kts 269°
2026-05-09 21:35 -1.38671 -48.47976 51 ft 11 kts 269°
2026-05-09 21:35 -1.38674 -48.48045 50 ft 8 kts 267°
2026-05-09 21:35 -1.38676 -48.48090 49 ft 5 kts 267°
2026-05-09 21:36 -1.38675 -48.48140 48 ft 10 kts 271°
2026-05-09 21:36 -1.38675 -48.48195 47 ft 6 kts 270°
2026-05-09 21:36 -1.38677 -48.48227 47 ft 6 kts 256°
2026-05-09 21:36 -1.38740 -48.48288 46 ft 14 kts 224°
2026-05-09 21:37 -1.38797 -48.48346 46 ft 9 kts 228°
2026-05-09 21:37 -1.38813 -48.48376 46 ft 0 kts 255°
2026-05-09 21:40 -1.38814 -48.48392 44 ft 6 kts 264°
2026-05-09 21:40 -1.38813 -48.48453 43 ft 12 kts 277°
2026-05-09 21:40 -1.38785 -48.48477 44 ft 2 kts 27°
2026-05-09 21:41 -1.38782 -48.48474 44 ft 1 kts 42°
2026-05-09 21:41 -1.38776 -48.48469 44 ft 6 kts 42°
2026-05-09 21:41 -1.38675 -48.48368 44 ft 50 kts 46°
2026-05-09 21:41 -1.38241 -48.47933 49 ft 124 kts 45°
2026-05-09 21:42 -1.37503 -48.47178 212 ft 167 kts 48°
2026-05-09 21:42 -1.36708 -48.46354 1049 ft 165 kts 48°
2026-05-09 21:42 -1.36012 -48.45443 1742 ft 169 kts 72°
2026-05-09 21:42 -1.35951 -48.44225 1966 ft 187 kts 95°
2026-05-09 21:43 -1.36042 -48.42844 2186 ft 212 kts 95°
2026-05-09 21:43 -1.36126 -48.41297 2620 ft 229 kts 94°
2026-05-09 21:43 -1.36201 -48.39701 3382 ft 232 kts 94°
2026-05-09 21:43 -1.36273 -48.38074 4120 ft 235 kts 93°
2026-05-09 21:44 -1.36342 -48.36433 4912 ft 238 kts 92°
2026-05-09 21:44 -1.36409 -48.34776 5675 ft 240 kts 93°
2026-05-09 21:44 -1.36572 -48.33110 6401 ft 243 kts 103°
2026-05-09 21:44 -1.37098 -48.31432 6776 ft 263 kts 108°
2026-05-09 21:45 -1.37713 -48.29683 7404 ft 269 kts 109°
2026-05-09 21:45 -1.38346 -48.27909 8098 ft 273 kts 109°
2026-05-09 21:45 -1.38988 -48.26109 8789 ft 277 kts 109°
2026-05-09 21:45 -1.39637 -48.24281 9480 ft 281 kts 108°
2026-05-09 21:46 -1.40293 -48.22424 10076 ft 288 kts 108°
2026-05-09 21:46 -1.40985 -48.20458 10236 ft 311 kts 108°
2026-05-09 21:46 -1.41719 -48.18367 10561 ft 325 kts 108°
2026-05-09 21:46 -1.42476 -48.16216 11124 ft 330 kts 108°
2026-05-09 21:47 -1.43241 -48.14045 11748 ft 333 kts 108°
2026-05-09 21:47 -1.44005 -48.11879 12358 ft 336 kts 108°
2026-05-09 21:47 -1.44786 -48.09665 12962 ft 340 kts 108°
2026-05-09 21:47 -1.45575 -48.07426 13553 ft 343 kts 108°
2026-05-09 21:48 -1.46375 -48.05164 14090 ft 347 kts 108°
2026-05-09 21:48 -1.47179 -48.02880 14584 ft 350 kts 108°
2026-05-09 21:48 -1.47988 -48.00575 15089 ft 353 kts 108°
2026-05-09 21:48 -1.48802 -47.98249 15589 ft 356 kts 108°
2026-05-09 21:49 -1.49627 -47.95901 16085 ft 359 kts 108°
2026-05-09 21:49 -1.50461 -47.93535 16583 ft 362 kts 107°
2026-05-09 21:49 -1.51300 -47.91152 17087 ft 365 kts 107°
2026-05-09 21:49 -1.52145 -47.88751 17577 ft 368 kts 107°
2026-05-09 21:50 -1.52998 -47.86327 18056 ft 371 kts 107°
2026-05-09 21:50 -1.53858 -47.83885 18483 ft 374 kts 107°
2026-05-09 21:50 -1.55596 -47.78950 19312 ft 379 kts 107°
2026-05-09 21:51 -1.56471 -47.76461 19727 ft 381 kts 107°
2026-05-09 21:51 -1.57352 -47.73955 20138 ft 383 kts 107°
2026-05-09 21:51 -1.58235 -47.71435 20537 ft 385 kts 107°
2026-05-09 21:51 -1.59123 -47.68899 20927 ft 388 kts 108°
2026-05-09 21:52 -1.60021 -47.66348 21307 ft 390 kts 108°
2026-05-09 21:52 -1.60922 -47.63784 21684 ft 392 kts 108°
2026-05-09 21:52 -1.61829 -47.61202 22061 ft 395 kts 108°
2026-05-09 21:52 -1.62741 -47.58606 22433 ft 397 kts 108°
2026-05-09 21:53 -1.63661 -47.55991 22806 ft 399 kts 108°
2026-05-09 21:53 -1.64584 -47.53366 23174 ft 402 kts 108°
2026-05-09 21:53 -1.65513 -47.50726 23532 ft 404 kts 108°
2026-05-09 21:54 -1.67383 -47.45401 24102 ft 408 kts 108°
2026-05-09 21:54 -1.68324 -47.42714 24387 ft 411 kts 108°
2026-05-09 21:54 -1.69469 -47.40089 24648 ft 415 kts 118°
2026-05-09 21:54 -1.71026 -47.37654 24917 ft 418 kts 122°
2026-05-09 21:55 -1.72642 -47.35230 25182 ft 420 kts 122°
2026-05-09 21:55 -1.74259 -47.32792 25474 ft 422 kts 122°
2026-05-09 21:55 -1.75878 -47.30339 25753 ft 424 kts 122°
2026-05-09 21:55 -1.77503 -47.27871 26037 ft 426 kts 122°
2026-05-09 21:56 -1.79133 -47.25394 26311 ft 428 kts 122°
2026-05-09 21:56 -1.80775 -47.22899 26580 ft 430 kts 122°
2026-05-09 21:56 -1.82426 -47.20400 26841 ft 432 kts 122°
2026-05-09 21:56 -1.84084 -47.17889 27099 ft 434 kts 122°
2026-05-09 21:57 -1.85747 -47.15364 27369 ft 435 kts 122°
2026-05-09 21:57 -1.87394 -47.12867 27623 ft 437 kts 122°
2026-05-09 21:57 -1.89069 -47.10326 27880 ft 439 kts 122°
2026-05-09 21:57 -1.90754 -47.07771 28137 ft 441 kts 122°
2026-05-09 21:58 -1.92445 -47.05207 28400 ft 442 kts 123°
2026-05-09 21:58 -1.94141 -47.02637 28660 ft 444 kts 123°
2026-05-09 21:58 -1.95847 -47.00055 28897 ft 446 kts 123°
2026-05-09 21:58 -1.97565 -46.97464 29152 ft 448 kts 123°
2026-05-09 21:59 -1.99291 -46.94862 29397 ft 449 kts 123°
2026-05-09 21:59 -2.01019 -46.92253 29642 ft 451 kts 123°
2026-05-09 21:59 -2.02749 -46.89633 29879 ft 453 kts 123°
2026-05-09 21:59 -2.04486 -46.87000 30090 ft 454 kts 123°
2026-05-09 22:00 -2.06230 -46.84360 30276 ft 456 kts 123°
2026-05-09 22:00 -2.07980 -46.81710 30466 ft 457 kts 123°
2026-05-09 22:00 -2.09734 -46.79052 30650 ft 459 kts 123°
2026-05-09 22:00 -2.11494 -46.76385 30836 ft 460 kts 123°
2026-05-09 22:01 -2.13260 -46.73710 31016 ft 462 kts 123°
2026-05-09 22:01 -2.15032 -46.71029 31182 ft 464 kts 123°
2026-05-09 22:01 -2.16811 -46.68332 31369 ft 465 kts 123°
2026-05-09 22:01 -2.18591 -46.65633 31547 ft 466 kts 123°
2026-05-09 22:02 -2.20378 -46.62925 31758 ft 467 kts 123°
2026-05-09 22:02 -2.22168 -46.60217 31996 ft 467 kts 123°
2026-05-09 22:02 -2.23959 -46.57506 32179 ft 468 kts 123°
2026-05-09 22:02 -2.25755 -46.54787 32408 ft 468 kts 123°
2026-05-09 22:03 -2.27549 -46.52070 32661 ft 468 kts 124°
2026-05-09 22:03 -2.29339 -46.49359 32903 ft 468 kts 124°
2026-05-09 22:03 -2.31132 -46.46641 33147 ft 468 kts 124°
2026-05-09 22:03 -2.32923 -46.43930 33391 ft 468 kts 124°
2026-05-09 22:04 -2.34715 -46.41217 33644 ft 467 kts 124°
2026-05-09 22:04 -2.36505 -46.38506 33887 ft 467 kts 124°
2026-05-09 22:04 -2.38293 -46.35792 34121 ft 467 kts 124°
2026-05-09 22:04 -2.40053 -46.33120 34356 ft 466 kts 124°
2026-05-09 22:05 -2.41833 -46.30419 34599 ft 465 kts 124°
2026-05-09 22:05 -2.43614 -46.27720 34817 ft 465 kts 124°
2026-05-09 22:05 -2.45417 -46.24984 34929 ft 464 kts 124°
2026-05-09 22:05 -2.47157 -46.22340 34955 ft 459 kts 124°
2026-05-09 22:06 -2.50655 -46.17030 34954 ft 458 kts 124°
2026-05-09 22:06 -2.54162 -46.11722 34952 ft 457 kts 124°
2026-05-09 22:07 -2.57670 -46.06414 34955 ft 457 kts 124°
2026-05-09 22:07 -2.61169 -46.01096 34956 ft 457 kts 124°
2026-05-09 22:08 -2.64668 -45.95781 34958 ft 457 kts 124°
2026-05-09 22:08 -2.68171 -45.90472 34966 ft 457 kts 124°
2026-05-09 22:09 -2.71670 -45.85172 34967 ft 457 kts 124°
2026-05-09 22:09 -2.74577 -45.80762 34968 ft 457 kts 124°
2026-05-09 22:10 -2.78069 -45.75459 34967 ft 456 kts 124°
2026-05-09 22:10 -2.81562 -45.70160 34973 ft 456 kts 124°
2026-05-09 22:11 -2.85050 -45.64861 34970 ft 456 kts 124°
2026-05-09 22:11 -2.88541 -45.59573 34970 ft 456 kts 124°
2026-05-09 22:12 -2.92029 -45.54283 34975 ft 455 kts 124°
2026-05-09 22:12 -2.95508 -45.48998 34973 ft 455 kts 124°
2026-05-09 22:13 -2.98982 -45.43716 34971 ft 454 kts 124°
2026-05-09 22:13 -3.02450 -45.38436 34973 ft 454 kts 124°
2026-05-09 22:14 -3.05918 -45.33165 34973 ft 453 kts 124°
2026-05-09 22:14 -3.09385 -45.27901 34977 ft 453 kts 124°
2026-05-09 22:15 -3.12848 -45.22636 34967 ft 453 kts 124°
2026-05-09 22:15 -3.16312 -45.17377 34968 ft 452 kts 124°
2026-05-09 22:16 -3.19766 -45.12122 34968 ft 452 kts 124°
2026-05-09 22:16 -3.23223 -45.06869 34973 ft 452 kts 124°
2026-05-09 22:17 -3.26684 -45.01617 34954 ft 453 kts 124°
2026-05-09 22:17 -3.30148 -44.96349 34946 ft 453 kts 124°
2026-05-09 22:18 -3.33611 -44.91069 34941 ft 454 kts 124°
2026-05-09 22:18 -3.37088 -44.85785 34943 ft 455 kts 123°
2026-05-09 22:19 -3.40566 -44.80493 34946 ft 455 kts 124°
2026-05-09 22:19 -3.44045 -44.75196 34942 ft 455 kts 124°
2026-05-09 22:20 -3.47528 -44.69899 34947 ft 455 kts 124°
2026-05-09 22:20 -3.50989 -44.64643 34946 ft 455 kts 124°
2026-05-09 22:21 -3.54470 -44.59346 34944 ft 456 kts 124°
2026-05-09 22:21 -3.57954 -44.54039 34946 ft 456 kts 124°
2026-05-09 22:22 -3.61435 -44.48733 34945 ft 456 kts 124°
2026-05-09 22:22 -3.64912 -44.43425 34947 ft 456 kts 124°
2026-05-09 22:23 -3.68399 -44.38120 34949 ft 456 kts 124°
2026-05-09 22:23 -3.71881 -44.32819 34949 ft 456 kts 124°
2026-05-09 22:24 -3.75365 -44.27515 34949 ft 456 kts 124°
2026-05-09 22:24 -3.78833 -44.22213 34946 ft 455 kts 123°
2026-05-09 22:25 -3.82308 -44.16909 34948 ft 455 kts 124°
2026-05-09 22:25 -3.85787 -44.11617 34940 ft 455 kts 123°
2026-05-09 22:26 -3.89267 -44.06321 34944 ft 455 kts 123°
2026-05-09 22:26 -3.92739 -44.01018 34943 ft 455 kts 124°
2026-05-09 22:27 -3.96217 -43.95714 34942 ft 456 kts 123°
2026-05-09 22:27 -3.99690 -43.90410 34940 ft 456 kts 123°
2026-05-09 22:28 -4.03160 -43.85089 34943 ft 457 kts 123°
2026-05-09 22:28 -4.06643 -43.79771 34943 ft 457 kts 124°
2026-05-09 22:29 -4.10135 -43.74458 34943 ft 457 kts 124°
2026-05-09 22:29 -4.13630 -43.69140 34950 ft 457 kts 123°
2026-05-09 22:30 -4.17105 -43.63820 34956 ft 456 kts 123°
2026-05-09 22:30 -4.20579 -43.58501 34958 ft 456 kts 123°
2026-05-09 22:31 -4.24057 -43.53190 34958 ft 456 kts 123°
2026-05-09 22:31 -4.27511 -43.47914 34960 ft 456 kts 123°
2026-05-09 22:32 -4.30988 -43.42607 34953 ft 455 kts 123°
2026-05-09 22:32 -4.34456 -43.37300 34950 ft 455 kts 123°
2026-05-09 22:33 -4.37927 -43.31990 34952 ft 455 kts 123°
2026-05-09 22:33 -4.41402 -43.26689 34944 ft 455 kts 123°
2026-05-09 22:34 -4.44874 -43.21390 34946 ft 455 kts 123°
2026-05-09 22:34 -4.48320 -43.16070 34942 ft 455 kts 120°
2026-05-09 22:35 -4.51068 -43.10359 34942 ft 455 kts 115°
2026-05-09 22:35 -4.53729 -43.04610 34939 ft 455 kts 115°
2026-05-09 22:36 -4.56394 -42.98854 34926 ft 456 kts 115°
2026-05-09 22:36 -4.59071 -42.93089 34930 ft 456 kts 115°
2026-05-09 22:37 -4.61751 -42.87324 34935 ft 457 kts 115°
2026-05-09 22:37 -4.64431 -42.81554 34931 ft 457 kts 115°
2026-05-09 22:38 -4.67105 -42.75773 34935 ft 457 kts 115°
2026-05-09 22:39 -4.71130 -42.67102 34933 ft 458 kts 115°
2026-05-09 22:39 -4.73816 -42.61319 34937 ft 458 kts 115°
2026-05-09 22:40 -4.77845 -42.52633 34944 ft 458 kts 115°
2026-05-09 22:40 -4.80530 -42.46841 34943 ft 458 kts 115°
2026-05-09 22:41 -4.83216 -42.41045 34941 ft 458 kts 115°
2026-05-09 22:41 -4.85897 -42.35245 34945 ft 458 kts 115°
2026-05-09 22:42 -4.88581 -42.29448 34947 ft 458 kts 115°
2026-05-09 22:42 -4.91271 -42.23652 34948 ft 458 kts 115°
2026-05-09 22:43 -4.93954 -42.17854 34947 ft 458 kts 115°
2026-05-09 22:43 -4.96632 -42.12059 34947 ft 458 kts 115°
2026-05-09 22:44 -4.99288 -42.06300 34938 ft 458 kts 115°
2026-05-09 22:44 -5.01970 -42.00508 34944 ft 458 kts 115°
2026-05-09 22:45 -5.04657 -41.94715 34946 ft 458 kts 115°
2026-05-09 22:45 -5.07334 -41.88923 34945 ft 458 kts 115°
2026-05-09 22:46 -5.10003 -41.83124 34949 ft 458 kts 115°
2026-05-09 22:47 -5.14015 -41.74425 34958 ft 458 kts 115°
2026-05-09 22:47 -5.16694 -41.68632 34957 ft 458 kts 115°
2026-05-09 22:48 -5.19372 -41.62841 34958 ft 457 kts 115°
2026-05-09 22:48 -5.22041 -41.57052 34964 ft 457 kts 115°
2026-05-09 22:49 -5.24712 -41.51258 34965 ft 457 kts 115°
2026-05-09 22:49 -5.27383 -41.45468 34974 ft 457 kts 115°
2026-05-09 22:50 -5.30054 -41.39680 34977 ft 457 kts 115°
2026-05-09 22:50 -5.32719 -41.33886 34983 ft 457 kts 115°
2026-05-09 22:51 -5.35379 -41.28096 34983 ft 457 kts 115°
2026-05-09 22:51 -5.38044 -41.22305 34986 ft 457 kts 115°
2026-05-09 22:52 -5.40721 -41.16516 34996 ft 457 kts 115°
2026-05-09 22:52 -5.43385 -41.10727 34994 ft 457 kts 115°
2026-05-09 22:53 -5.46048 -41.04937 35007 ft 457 kts 115°
2026-05-09 22:53 -5.48705 -40.99145 35011 ft 457 kts 115°
2026-05-09 22:54 -5.51372 -40.93362 35009 ft 456 kts 115°
2026-05-09 22:54 -5.53585 -40.88564 35010 ft 456 kts 115°
2026-05-09 22:55 -5.56248 -40.82789 35011 ft 456 kts 115°
2026-05-09 22:55 -5.58900 -40.77013 35015 ft 455 kts 115°
2026-05-09 22:56 -5.61545 -40.71242 35008 ft 455 kts 115°
2026-05-09 22:56 -5.64191 -40.65474 35010 ft 455 kts 115°
2026-05-09 22:57 -5.66839 -40.59709 35010 ft 454 kts 115°
2026-05-09 22:57 -5.69484 -40.53948 35011 ft 454 kts 115°
2026-05-09 22:58 -5.72128 -40.48194 35007 ft 454 kts 115°
2026-05-09 22:58 -5.74750 -40.42480 35009 ft 453 kts 115°
2026-05-09 22:59 -5.77382 -40.36728 35008 ft 453 kts 115°
2026-05-09 22:59 -5.80013 -40.30982 35006 ft 453 kts 115°
2026-05-09 23:00 -5.82651 -40.25236 35010 ft 453 kts 115°
2026-05-09 23:00 -5.85284 -40.19488 35015 ft 453 kts 115°
2026-05-09 23:01 -5.87921 -40.13744 35011 ft 453 kts 115°
2026-05-09 23:01 -5.90553 -40.07997 35009 ft 453 kts 115°
2026-05-09 23:02 -5.93176 -40.02251 35002 ft 452 kts 115°
2026-05-09 23:02 -5.95799 -39.96514 35004 ft 452 kts 115°
2026-05-09 23:03 -5.98424 -39.90782 35005 ft 451 kts 115°
2026-05-09 23:03 -6.01042 -39.85052 35002 ft 451 kts 115°
2026-05-09 23:04 -6.03663 -39.79325 34993 ft 451 kts 115°